SCP
0 0 0 0 0 0 0 0 0 0 0 0 0 0 -0 -0 0 0 0 0 -0 -0 -0 0 0 0 0 0 0 0 0 0 0 0 0 0 0 0 0 0 0 0 0
0 0 0 0 0 0 0 0 0 0 0 0 0 0 0 0 0 0 0 0 -0 -0 -0 0 0 0 0 0 0 0 0 0 0 0 0 0 0 0 0 0 0 0 0
0 0 0 0 0 0 0 0 0 0 0 0 0 0 0 0 0 0 0 0 0 -0 -0 0 0 0 0 0 0 0 0 0 0 0 0 0 0 0 0 0 0 0 0
0 0 0 0 0 0 0 0 0 0 0 0 0 0 0 0 0 0 0 0 0 -0 -0 0 0 0 -0 -0 0 0 0 0 0 0 0 0 0 0 0 0 0 0 -0
0 0 0 0 0 0 0 0 0 0 0 0 0 0 0 0 0 0 0 0 0 0 0 0 0 0 0 0 0 0 0 0 0 0 0 0 0 0 0 0 0 0 0
0 0 0 0 0 0 0 0 0 0 0 0 0 0 0 0 0 0 0 0 0 0 0 0 0 0 0 0 0 0 0 0 0 0 0 0 0 0 0 0 0 0 0
0 0 0 0 0 0 0 0 0 0 0 0 0 0 0 0 0 0 0 0 0 0 0 0 0 0 0 0 0 0 0 0 0 0 0 0 0 0 0 0 0 0 -0
0 0 0 0 0 0 0 0 0 0 0 0 0 0 0 0 0 0 0 0 -0 0 0 -0 -0 -0 -0 -0 0 0 0 0 0 0 0 0 0 0 0 0 0 0 0
0 0 0 0 0 0 0 0 0 0 0 0 0 0 0 0 0 0 0 0 -0 0 0 -0 -0 -0 -0 -0 0 0 0 0 0 0 0 0 0 0 0 0 0 0 0
0 0 0 0 0 0 0 0 0 0 0 0 0 0 0 0 0 0 0 0 -0 0 0 -0 -0 -0 -0 -0 -0 -0 0 0 -0 0 0 0 0 0 0 0 0 0 0
0 0 0 0 0 0 0 0 0 0 0 0 0 0 0 0 0 0 0 0 -0 0 0 0 -0 -0 -0 -0 -0 -0 -0 -0 -0 -0 0 0 0 0 0 0 0 0 0
0 0 0 0 0 0 0 0 0 0 0 0 0 0 0 0 0 0 0 0 -0 0 0 -0 -0 -0 -0 -0 -0 -0 -0 -0 -0 -0 -0 0 0 0 0 0 0 0 0
0 0 0 0 0 0 0 0 0 0 0 0 0 0 0 0 0 0 0 0 0 0 0 -0 -0 -0 -0 -0 -0 -0 -0 -0 -0 -0 0 0 0 0 0 0 0 0 0
0 0 0 0 0 0 0 0 0 0 0 0 0 0 0 0 0 0 0 0 0 0 0 0 -0 -0 -0 -0 -0 -0 -0 -0 -0 -0 0 0 0 0 0 0 0 0 0
0 0 0 0 0 0 0 0 0 0 0 0 0 0 0 0 0 0 0 0 0 0 0 -0 -0 -0 -0 -0 -0 -0 -0 -0 -0 -0 0 0 0 0 0 0 0 0 0
0 0 0 0 0 0 0 0 0 0 0 0 0 0 0 0 0 0 0 0 0 0 0 -0 -0 0 -0 -0 -0 -0 -0 -0 -0 0 0 0 0 0 0 0 0 0 0
0 0 0 0 0 0 0 0 0 0 0 0 0 0 0 0 0 0 0 0 0 0 0 -0 -0 0 -0 0 -0 -0 -0 -0 -0 0 0 0 0 0 0 0 0 0 0
0 0 0 0 0 0 0 0 0 0 0 0 0 0 0 0 0 0 0 0 0 0 0 -0 -0 -0 0 0 0 0 -0 -0 -0 0 0 0 0 0 0 0 0 0 0
0 0 0 0 0 0 0 0 0 0 0 0 0 0 0 0 0 0 -0 0 0 0 0 0 0 0 0 0 0 0 0 0 0 0 0 0 0 0 0 0 0 0 0
0 0 0 0 0 0 0 0 0 0 0 0 0 0 0 0 0 0 0 0 0 0 0 0 0 0 0 0 0 0 0 0 0 0 0 0 0 0 0 0 0 0 0
0 0 0 0 0 0 0 0 0 0 0 0 0 0 0 0 0 0 0 0 0 0 0 0 0 0 0 0 0 0 0 0 0 0 0 0 0 0 0 0 0 0 0
0 0 0 0 0 0 0 0 0 0 0 0 0 0 0 0 0 0 0 0 0 0 0 0 0 0 0 0 0 0 0 0 0 0 0 0 0 0 0 0 0 0 0
0 0 0 0 0 0 0 0 0 0 0 0 0 0 0 0 0 0 0 0 0 0 0 0 0 0 0 0 0 0 0 0 0 0 0 0 0 0 0 0 0 0 0
0 0 0 0 0 0 0 0 0 0 0 0 0 0 0 0 0 0 0 0 0 0 0 0 0 0 0 0 0 0 0 0 0 0 0 0 0 0 0 0 0 0 0
0 0 0 0 0 0 0 0 0 0 0 0 0 0 0 0 0 0 0 0 0 0 0 0 0 0 0 0 0 0 0 0 0 0 0 0 0 0 0 0 0 0 0
0 0 0 0 0 0 0 0 0 0 0 0 0 0 0 0 0 0 0 0 0 0 0 0 0 0 0 0 0 0 0 0 0 0 0 0 0 0 0 0 0 0 0
Wind_Speed_500mb
34 29 26 24 24 20 17 15 14 15 19 22 24 26 28 29 31 31 37 35 34 37 40 38 35 33 28 29 36 38 35 35 42 43 46 50 58 67 74 76 78 82 84
38 35 33 30 27 23 20 19 16 16 18 21 23 23 25 26 28 29 34 34 33 36 40 38 34 34 32 32 33 37 37 42 41 42 43 51 58 57 63 76 85 84 87
46 43 38 34 32 29 25 23 20 19 19 20 21 21 22 24 24 26 31 31 31 37 40 38 36 34 33 32 33 34 36 38 39 40 44 46 50 57 59 64 72 80 90
52 48 42 38 35 32 29 27 24 22 22 20 20 20 20 21 22 23 26 26 27 34 38 39 36 35 35 32 32 34 34 34 37 42 44 49 52 55 57 58 61 68 77
57 52 47 41 39 36 33 30 27 26 23 24 20 20 18 18 18 20 22 20 21 29 34 35 36 37 37 35 36 35 36 38 42 43 47 51 53 57 61 60 57 53 67
62 57 54 48 45 42 38 34 32 31 27 26 22 20 18 16 15 15 17 16 16 23 28 30 33 35 36 36 37 37 39 41 43 44 48 52 51 52 52 56 60 63 57
66 64 59 53 49 45 42 39 37 35 32 29 25 23 20 18 15 14 13 13 12 18 24 26 28 31 33 33 34 36 38 42 46 48 51 54 53 54 50 49 52 57 61
71 70 63 58 54 50 48 45 43 39 37 32 29 27 24 21 17 14 12 11 10 15 21 22 23 27 28 28 29 31 35 40 44 45 47 48 49 47 48 42 43 54 58
77 74 69 66 60 57 53 51 48 45 44 38 35 31 27 24 21 17 13 10 9 12 17 19 20 22 23 23 25 28 33 37 39 39 40 41 41 42 44 45 50 46 58
77 76 72 69 65 62 57 56 51 49 47 42 39 36 33 29 25 21 17 14 10 11 14 16 17 18 19 19 20 23 28 31 32 32 33 36 39 41 45 50 52 55 49
64 76 75 66 63 64 62 59 57 54 52 49 45 41 37 34 30 27 23 19 16 13 14 15 15 15 15 16 16 20 24 26 26 26 29 31 34 37 41 46 48 50 50
54 68 77 74 67 69 67 63 61 61 58 55 51 47 43 40 36 32 28 24 21 19 17 16 15 14 13 14 14 16 19 22 20 20 22 25 31 34 37 40 43 44 44
44 57 70 77 72 70 72 70 68 68 66 64 60 55 49 45 40 36 32 29 27 24 21 19 17 16 13 12 11 12 14 16 15 14 18 22 26 29 31 33 34 36 36
38 53 66 71 77 79 79 76 74 75 74 72 67 62 55 51 46 42 37 34 32 29 26 24 21 18 16 14 11 11 11 11 11 11 14 19 21 22 23 25 27 28 30
38 46 55 66 75 83 84 79 79 78 77 74 69 64 61 57 49 43 39 37 34 33 30 28 26 23 21 19 17 14 12 12 11 9 10 13 14 16 17 20 22 24 25
40 48 52 59 70 80 86 82 82 79 78 74 69 67 60 55 50 47 45 44 41 39 37 34 31 29 26 24 22 19 16 14 11 9 8 8 9 10 12 15 17 20 23
44 46 53 57 65 74 85 88 84 83 83 80 77 72 67 60 54 54 52 50 46 46 46 42 39 35 32 30 27 24 20 17 14 11 7 5 5 6 8 11 13 15 18
48 50 52 57 63 66 77 87 90 92 90 87 86 81 76 71 66 63 59 59 62 59 54 50 46 42 38 35 31 28 25 22 18 15 11 9 6 3 4 6 9 12 14
52 57 58 58 60 65 72 80 92 95 92 93 91 88 86 77 74 72 71 75 71 66 59 57 52 50 47 42 37 33 31 27 24 20 16 13 9 7 4 1 4 7 10
55 59 62 62 59 67 73 78 85 96 97 100 100 94 92 90 92 90 89 87 80 73 66 63 59 56 54 50 44 40 37 32 29 26 23 20 17 14 11 7 6 7 9
59 61 68 69 71 72 70 78 82 88 97 102 102 100 99 100 105 103 100 95 87 78 72 69 68 64 60 57 53 49 45 41 38 34 30 27 24 20 16 13 12 11 11
70 70 72 75 78 81 81 80 84 90 95 101 103 104 103 102 107 107 106 100 91 81 73 72 74 71 65 62 59 55 51 48 45 40 37 33 29 26 23 20 18 17 17
73 78 81 81 82 84 88 90 89 90 93 98 104 108 110 109 111 111 111 104 98 90 80 76 77 75 71 67 66 62 58 53 46 43 41 38 35 32 30 28 25 23 23
71 76 83 87 88 90 91 94 94 93 91 94 102 111 115 115 114 110 112 109 105 100 88 80 81 78 77 72 70 69 63 59 57 52 48 45 42 40 37 35 32 30 29
78 78 81 86 92 94 94 96 98 95 95 93 99 105 111 116 116 112 109 110 109 109 96 87 86 84 80 78 73 69 65 63 62 56 53 52 49 45 43 41 39 36 34
78 78 83 87 95 97 98 97 98 104 102 98 94 99 106 112 117 117 112 110 111 109 102 97 92 90 84 80 76 71 69 68 66 61 60 58 54 51 48 45 45 42 39
Wind_Direction_500mb
212 212 208 205 202 196 188 178 160 136 116 105 98 91 85 79 74 68 67 64 64 65 62 59 62 64 57 49 46 47 42 42 40 34 31 28 28 27 31 36 34 38 45
214 214 211 206 206 202 195 191 171 153 132 121 111 102 94 86 80 74 71 67 67 68 67 63 62 65 59 52 49 45 41 38 36 37 35 35 34 27 30 36 35 39 43
216 216 215 213 207 205 201 191 186 168 151 136 125 116 106 98 90 82 76 72 70 70 69 66 63 64 61 56 52 47 40 34 37 38 36 34 31 30 39 39 41 40 42
220 220 219 217 212 208 204 199 190 181 164 152 142 132 122 111 102 93 85 78 74 73 72 70 66 63 61 57 52 49 44 43 44 42 37 33 30 31 36 36 35 35 37
223 222 222 220 216 211 207 205 197 191 180 162 159 147 138 125 115 104 94 85 80 77 74 72 69 63 61 57 55 53 51 51 51 47 44 39 36 32 28 30 33 37 38
225 224 222 219 218 215 209 207 203 195 191 174 175 164 155 144 131 115 101 93 88 83 78 74 71 66 62 59 57 56 55 53 51 47 44 42 40 37 35 33 35 37 38
226 225 225 225 222 217 213 212 211 200 200 183 189 179 173 168 152 132 114 106 102 92 86 80 76 72 67 64 63 62 59 59 56 52 50 46 39 33 37 42 43 44 45
227 227 226 225 225 221 219 216 213 207 207 193 200 192 188 184 174 157 136 125 120 103 95 90 85 81 76 72 70 69 65 61 56 53 53 50 46 43 42 46 48 51 50
228 227 227 226 226 224 222 219 215 212 211 200 205 201 200 198 189 183 161 153 141 117 106 103 97 90 85 81 75 70 65 60 56 53 53 53 52 50 52 57 57 54 54
229 228 227 228 230 228 225 222 218 213 215 207 209 206 208 206 202 195 183 176 169 147 129 119 111 104 96 88 81 76 70 63 58 55 57 57 53 52 53 54 53 54 56
236 230 228 227 235 232 228 225 222 217 215 212 212 211 212 212 211 204 195 190 181 182 157 145 136 124 111 101 90 83 77 70 63 59 58 57 56 54 53 53 52 52 51
241 233 229 227 227 232 229 228 223 220 217 216 214 214 214 215 214 211 204 199 192 192 180 169 155 142 131 115 103 91 82 74 65 62 62 61 58 55 54 53 50 48 47
243 232 228 233 227 227 232 227 226 223 220 220 218 217 216 216 216 215 210 206 203 198 193 186 173 167 159 137 123 105 93 83 76 72 69 65 61 57 54 52 50 48 47
249 239 236 237 230 223 227 228 229 227 223 222 221 220 218 217 216 216 214 211 208 205 200 196 190 184 178 165 157 142 123 109 98 88 80 72 63 56 51 50 50 47 47
251 246 242 237 234 230 225 228 231 233 231 230 226 224 222 221 219 219 220 217 215 211 207 203 199 198 189 181 177 168 161 149 135 121 100 83 70 60 52 50 48 46 43
254 249 245 239 236 235 231 226 229 234 236 234 232 232 229 228 225 223 221 219 218 220 216 211 206 204 200 196 193 189 185 178 166 158 134 106 86 66 52 47 45 41 39
264 259 251 243 241 238 231 230 226 230 234 231 232 230 227 228 226 224 224 226 225 225 223 216 215 212 210 211 207 204 199 199 193 183 175 140 106 81 62 51 42 37 33
260 258 256 251 246 244 236 230 228 229 232 232 228 227 223 223 223 224 225 227 226 225 226 222 220 219 216 218 219 218 211 211 211 207 193 183 160 112 64 48 33 21 18
262 259 255 253 249 247 243 239 235 234 235 236 233 229 227 220 225 225 228 232 231 229 227 227 223 223 222 221 222 224 225 215 215 214 211 208 205 203 207 272 350 357 358
269 259 257 252 251 247 242 238 239 237 236 237 236 232 230 221 221 223 225 231 232 231 227 229 227 226 226 225 221 223 225 221 219 218 218 215 215 222 228 240 273 309 327
270 268 260 252 248 246 244 244 241 239 235 235 236 235 234 229 227 228 229 230 233 231 230 226 227 227 228 228 226 222 222 221 220 219 219 222 222 227 233 247 263 280 298
265 265 264 259 252 246 245 243 243 242 241 238 237 237 238 235 233 233 235 236 237 236 234 230 230 230 229 232 230 227 223 223 222 220 222 224 229 234 241 247 257 270 283
263 259 260 262 258 251 246 247 245 244 242 241 241 240 238 237 235 234 236 236 238 239 236 233 229 231 229 230 232 231 228 226 226 225 226 228 233 239 245 251 256 264 273
261 257 255 258 259 256 251 246 247 245 246 243 240 240 241 238 238 237 237 236 237 238 236 235 232 230 232 230 232 234 233 228 227 228 227 230 233 237 244 251 257 262 269
260 257 255 254 256 257 256 251 247 246 243 245 245 243 241 240 240 238 238 238 237 238 235 233 233 231 232 231 230 233 234 234 233 232 232 233 235 238 243 249 254 260 266
267 262 259 257 255 256 257 255 251 247 245 241 244 246 244 242 240 239 238 238 237 237 236 234 233 233 231 232 231 229 230 232 235 234 236 236 239 242 245 250 253 257 261
Wind_Speed_850mb
34 29 26 24 24 20 17 15 14 15 19 22 24 26 28 29 31 31 37 35 34 37 40 38 35 33 28 29 36 38 35 35 42 43 46 50 58 67 74 76 78 82 84
38 35 33 30 27 23 20 19 16 16 18 21 23 23 25 26 28 29 34 34 33 36 40 38 34 34 32 32 33 37 37 42 41 42 43 51 58 57 63 76 85 84 87
46 43 38 34 32 29 25 23 20 19 19 20 21 21 22 24 24 26 31 31 31 37 40 38 36 34 33 32 33 34 36 38 39 40 44 46 50 57 59 64 72 80 90
52 48 42 38 35 32 29 27 24 22 22 20 20 20 20 21 22 23 26 26 27 34 38 39 36 35 35 32 32 34 34 34 37 42 44 49 52 55 57 58 61 68 77
57 52 47 41 39 36 33 30 27 26 23 24 20 20 18 18 18 20 22 20 21 29 34 35 36 37 37 35 36 35 36 38 42 43 47 51 53 57 61 60 57 53 67
62 57 54 48 45 42 38 34 32 31 27 26 22 20 18 16 15 15 17 16 16 23 28 30 33 35 36 36 37 37 39 41 43 44 48 52 51 52 52 56 60 63 57
66 64 59 53 49 45 42 39 37 35 32 29 25 23 20 18 15 14 13 13 12 18 24 26 28 31 33 33 34 36 38 42 46 48 51 54 53 54 50 49 52 57 61
71 70 63 58 54 50 48 45 43 39 37 32 29 27 24 21 17 14 12 11 10 15 21 22 23 27 28 28 29 31 35 40 44 45 47 48 49 47 48 42 43 54 58
77 74 69 66 60 57 53 51 48 45 44 38 35 31 27 24 21 17 13 10 9 12 17 19 20 22 23 23 25 28 33 37 39 39 40 41 41 42 44 45 50 46 58
77 76 72 69 65 62 57 56 51 49 47 42 39 36 33 29 25 21 17 14 10 11 14 16 17 18 19 19 20 23 28 31 32 32 33 36 39 41 45 50 52 55 49
64 76 75 66 63 64 62 59 57 54 52 49 45 41 37 34 30 27 23 19 16 13 14 15 15 15 15 16 16 20 24 26 26 26 29 31 34 37 41 46 48 50 50
54 68 77 74 67 69 67 63 61 61 58 55 51 47 43 40 36 32 28 24 21 19 17 16 15 14 13 14 14 16 19 22 20 20 22 25 31 34 37 40 43 44 44
44 57 70 77 72 70 72 70 68 68 66 64 60 55 49 45 40 36 32 29 27 24 21 19 17 16 13 12 11 12 14 16 15 14 18 22 26 29 31 33 34 36 36
38 53 66 71 77 79 79 76 74 75 74 72 67 62 55 51 46 42 37 34 32 29 26 24 21 18 16 14 11 11 11 11 11 11 14 19 21 22 23 25 27 28 30
38 46 55 66 75 83 84 79 79 78 77 74 69 64 61 57 49 43 39 37 34 33 30 28 26 23 21 19 17 14 12 12 11 9 10 13 14 16 17 20 22 24 25
40 48 52 59 70 80 86 82 82 79 78 74 69 67 60 55 50 47 45 44 41 39 37 34 31 29 26 24 22 19 16 14 11 9 8 8 9 10 12 15 17 20 23
44 46 53 57 65 74 85 88 84 83 83 80 77 72 67 60 54 54 52 50 46 46 46 42 39 35 32 30 27 24 20 17 14 11 7 5 5 6 8 11 13 15 18
48 50 52 57 63 66 77 87 90 92 90 87 86 81 76 71 66 63 59 59 62 59 54 50 46 42 38 35 31 28 25 22 18 15 11 9 6 3 4 6 9 12 14
52 57 58 58 60 65 72 80 92 95 92 93 91 88 86 77 74 72 71 75 71 66 59 57 52 50 47 42 37 33 31 27 24 20 16 13 9 7 4 1 4 7 10
55 59 62 62 59 67 73 78 85 96 97 100 100 94 92 90 92 90 89 87 80 73 66 63 59 56 54 50 44 40 37 32 29 26 23 20 17 14 11 7 6 7 9
59 61 68 69 71 72 70 78 82 88 97 102 102 100 99 100 105 103 100 95 87 78 72 69 68 64 60 57 53 49 45 41 38 34 30 27 24 20 16 13 12 11 11
70 70 72 75 78 81 81 80 84 90 95 101 103 104 103 102 107 107 106 100 91 81 73 72 74 71 65 62 59 55 51 48 45 40 37 33 29 26 23 20 18 17 17
73 78 81 81 82 84 88 90 89 90 93 98 104 108 110 109 111 111 111 104 98 90 80 76 77 75 71 67 66 62 58 53 46 43 41 38 35 32 30 28 25 23 23
71 76 83 87 88 90 91 94 94 93 91 94 102 111 115 115 114 110 112 109 105 100 88 80 81 78 77 72 70 69 63 59 57 52 48 45 42 40 37 35 32 30 29
78 78 81 86 92 94 94 96 98 95 95 93 99 105 111 116 116 112 109 110 109 109 96 87 86 84 80 78 73 69 65 63 62 56 53 52 49 45 43 41 39 36 34
78 78 83 87 95 97 98 97 98 104 102 98 94 99 106 112 117 117 112 110 111 109 102 97 92 90 84 80 76 71 69 68 66 61 60 58 54 51 48 45 45 42 39
Wind_Direction_850mb
212 212 208 205 202 196 188 178 160 136 116 105 98 91 85 79 74 68 67 64 64 65 62 59 62 64 57 49 46 47 42 42 40 34 31 28 28 27 31 36 34 38 45
214 214 211 206 206 202 195 191 171 153 132 121 111 102 94 86 80 74 71 67 67 68 67 63 62 65 59 52 49 45 41 38 36 37 35 35 34 27 30 36 35 39 43
216 216 215 213 207 205 201 191 186 168 151 136 125 116 106 98 90 82 76 72 70 70 69 66 63 64 61 56 52 47 40 34 37 38 36 34 31 30 39 39 41 40 42
220 220 219 217 212 208 204 199 190 181 164 152 142 132 122 111 102 93 85 78 74 73 72 70 66 63 61 57 52 49 44 43 44 42 37 33 30 31 36 36 35 35 37
223 222 222 220 216 211 207 205 197 191 180 162 159 147 138 125 115 104 94 85 80 77 74 72 69 63 61 57 55 53 51 51 51 47 44 39 36 32 28 30 33 37 38
225 224 222 219 218 215 209 207 203 195 191 174 175 164 155 144 131 115 101 93 88 83 78 74 71 66 62 59 57 56 55 53 51 47 44 42 40 37 35 33 35 37 38
226 225 225 225 222 217 213 212 211 200 200 183 189 179 173 168 152 132 114 106 102 92 86 80 76 72 67 64 63 62 59 59 56 52 50 46 39 33 37 42 43 44 45
227 227 226 225 225 221 219 216 213 207 207 193 200 192 188 184 174 157 136 125 120 103 95 90 85 81 76 72 70 69 65 61 56 53 53 50 46 43 42 46 48 51 50
228 227 227 226 226 224 222 219 215 212 211 200 205 201 200 198 189 183 161 153 141 117 106 103 97 90 85 81 75 70 65 60 56 53 53 53 52 50 52 57 57 54 54
229 228 227 228 230 228 225 222 218 213 215 207 209 206 208 206 202 195 183 176 169 147 129 119 111 104 96 88 81 76 70 63 58 55 57 57 53 52 53 54 53 54 56
236 230 228 227 235 232 228 225 222 217 215 212 212 211 212 212 211 204 195 190 181 182 157 145 136 124 111 101 90 83 77 70 63 59 58 57 56 54 53 53 52 52 51
241 233 229 227 227 232 229 228 223 220 217 216 214 214 214 215 214 211 204 199 192 192 180 169 155 142 131 115 103 91 82 74 65 62 62 61 58 55 54 53 50 48 47
243 232 228 233 227 227 232 227 226 223 220 220 218 217 216 216 216 215 210 206 203 198 193 186 173 167 159 137 123 105 93 83 76 72 69 65 61 57 54 52 50 48 47
249 239 236 237 230 223 227 228 229 227 223 222 221 220 218 217 216 216 214 211 208 205 200 196 190 184 178 165 157 142 123 109 98 88 80 72 63 56 51 50 50 47 47
251 246 242 237 234 230 225 228 231 233 231 230 226 224 222 221 219 219 220 217 215 211 207 203 199 198 189 181 177 168 161 149 135 121 100 83 70 60 52 50 48 46 43
254 249 245 239 236 235 231 226 229 234 236 234 232 232 229 228 225 223 221 219 218 220 216 211 206 204 200 196 193 189 185 178 166 158 134 106 86 66 52 47 45 41 39
264 259 251 243 241 238 231 230 226 230 234 231 232 230 227 228 226 224 224 226 225 225 223 216 215 212 210 211 207 204 199 199 193 183 175 140 106 81 62 51 42 37 33
260 258 256 251 246 244 236 230 228 229 232 232 228 227 223 223 223 224 225 227 226 225 226 222 220 219 216 218 219 218 211 211 211 207 193 183 160 112 64 48 33 21 18
262 259 255 253 249 247 243 239 235 234 235 236 233 229 227 220 225 225 228 232 231 229 227 227 223 223 222 221 222 224 225 215 215 214 211 208 205 203 207 272 350 357 358
269 259 257 252 251 247 242 238 239 237 236 237 236 232 230 221 221 223 225 231 232 231 227 229 227 226 226 225 221 223 225 221 219 218 218 215 215 222 228 240 273 309 327
270 268 260 252 248 246 244 244 241 239 235 235 236 235 234 229 227 228 229 230 233 231 230 226 227 227 228 228 226 222 222 221 220 219 219 222 222 227 233 247 263 280 298
265 265 264 259 252 246 245 243 243 242 241 238 237 237 238 235 233 233 235 236 237 236 234 230 230 230 229 232 230 227 223 223 222 220 222 224 229 234 241 247 257 270 283
263 259 260 262 258 251 246 247 245 244 242 241 241 240 238 237 235 234 236 236 238 239 236 233 229 231 229 230 232 231 228 226 226 225 226 228 233 239 245 251 256 264 273
261 257 255 258 259 256 251 246 247 245 246 243 240 240 241 238 238 237 237 236 237 238 236 235 232 230 232 230 232 234 233 228 227 228 227 230 233 237 244 251 257 262 269
260 257 255 254 256 257 256 251 247 246 243 245 245 243 241 240 240 238 238 238 237 238 235 233 233 231 232 231 230 233 234 234 233 232 232 233 235 238 243 249 254 260 266
267 262 259 257 255 256 257 255 251 247 245 241 244 246 244 242 240 239 238 238 237 237 236 234 233 233 231 232 231 229 230 232 235 234 236 236 239 242 245 250 253 257 261